Istanbul, Turkey

12:19 AM +03 on June 24, 2017 (GMT +0300)
Ataturk

Weather History for LTBA - December, 2012

Change the Weather History Date:

Tuesday, December 11, 2012

  Actual Average Record
Temperature  
Mean Temperature 46 °F -  
Max Temperature 55 °F 48 °F 59 °F (1999)
Min Temperature 38 °F 40 °F 31 °F (2013)
Degree Days  
Heating Degree Days 18    
Moisture  
Dew Point 38 °F    
Average Humidity 68    
Maximum Humidity 82    
Minimum Humidity 53    
Precipitation  
Precipitation 0.12 in - - ()
Sea Level Pressure  
Sea Level Pressure 29.83 in    
Wind  
Wind Speed 8 mph ()    
Max Wind Speed 23 mph    
Max Gust Speed 36 mph    
Visibility 6.1 miles    
Events Rain    
Averages and records for this station are not official NWS values.
T = Trace of Precipitation, MM = Missing Value Source: Averaged Metar Reports

Daily Weather History Graph

Daily Weather History Graph

Search for Another Location

Airport or City:

Trip Planner

Search our weather history database for the weather conditions in past years. The results will help you decide how hot, cold, wet, or windy it might be!

Date:

Astronomy

Dec. 11, 2012 Rise Set
Actual Time 7:19 AM EET 4:36 PM EET
Civil Twilight 6:48 AM EET 5:07 PM EET
Nautical Twilight 6:14 AM EET 5:42 PM EET
Astronomical Twilight 5:40 AM EET 6:15 PM EET
Moon 4:50 AM EET (12/11) 2:58 PM EET (12/11)
Length of Visible Light 10h 19m
Length of Day
9h 17m
Waning Crescent, 6% of the Moon is Illuminated
Dec 11
Waning Crescent
Dec 13
New
Dec 20
First Quarter
Dec 28
Full
Jan 5
Last Quarter

Hourly Weather History & Observations

Time (EET) Temp. Windchill Dew Point Humidity Pressure Visibility Wind Dir Wind Speed Gust Speed Precip Events Conditions
12:20 AM 42.8 °F 38.6 °F 37.4 °F 81% 29.83 in 6.2 mi NW 6.9 mph - N/A   Mostly Cloudy
12:50 AM 42.8 °F 38.6 °F 37.4 °F 81% 29.86 in 6.2 mi NNW 6.9 mph - N/A   Mostly Cloudy
1:20 AM 42.8 °F 37.5 °F 35.6 °F 76% 29.86 in 6.2 mi NNW 9.2 mph - N/A   Mostly Cloudy
1:50 AM 42.8 °F 37.5 °F 35.6 °F 76% 29.86 in 6.2 mi NW 9.2 mph - N/A   Mostly Cloudy
2:00 AM 42 °F - 36 °F 72% 29.89 in 6 mi NW 9.2 mph - -   Partly Cloudy
2:20 AM 41.0 °F 34.7 °F 33.8 °F 76% 29.89 in 6.2 mi NW 10.4 mph - N/A   Mostly Cloudy
2:50 AM 41.0 °F 36.4 °F 32.0 °F 70% 29.89 in 6.2 mi NNW 6.9 mph - N/A   Mostly Cloudy
3:20 AM 41.0 °F 35.8 °F 32.0 °F 70% 29.89 in 6.2 mi NNW 8.1 mph - N/A   Mostly Cloudy
3:50 AM 41.0 °F 35.8 °F 32.0 °F 70% 29.89 in 6.2 mi NNW 8.1 mph - N/A   Mostly Cloudy
4:20 AM 41.0 °F 35.2 °F 32.0 °F 70% 29.89 in 6.2 mi NNW 9.2 mph - N/A   Mostly Cloudy
4:50 AM 41.0 °F 37.1 °F 32.0 °F 70% 29.89 in 6.2 mi NNW 5.8 mph - N/A   Mostly Cloudy
5:20 AM 41.0 °F 36.4 °F 32.0 °F 70% 29.89 in 6.2 mi North 6.9 mph - N/A   Mostly Cloudy
5:50 AM 41.0 °F 36.4 °F 32.0 °F 70% 29.92 in 6.2 mi NNW 6.9 mph - N/A   Mostly Cloudy
6:20 AM 41.0 °F 36.4 °F 32.0 °F 70% 29.92 in 6.2 mi NNW 6.9 mph - N/A   Mostly Cloudy
6:50 AM 39.2 °F 33.6 °F 32.0 °F 75% 29.92 in 6.2 mi NNW 8.1 mph - N/A   Mostly Cloudy
7:20 AM 41.0 °F 36.4 °F 33.8 °F 76% 29.92 in 6.2 mi North 6.9 mph - N/A   Mostly Cloudy
7:50 AM 41.0 °F 38.0 °F 33.8 °F 76% 29.92 in 6.2 mi North 4.6 mph - N/A   Mostly Cloudy
8:00 AM 40 °F - 33 °F 67% 29.95 in 6 mi North 4.6 mph - -   Partly Cloudy
8:20 AM 42.8 °F 41.1 °F 32.0 °F 66% 29.92 in 6.2 mi Variable 3.5 mph - N/A   Mostly Cloudy
8:50 AM 44.6 °F 43.1 °F 33.8 °F 66% 29.92 in 6.2 mi Variable 3.5 mph - N/A   Mostly Cloudy
9:20 AM 46.4 °F 44.3 °F 33.8 °F 62% 29.92 in 6.2 mi ENE 4.6 mph - N/A   Scattered Clouds
9:50 AM 46.4 °F 43.5 °F 33.8 °F 62% 29.92 in 6.2 mi East 5.8 mph - N/A   Scattered Clouds
10:20 AM 46.4 °F 42.9 °F 35.6 °F 66% 29.92 in 6.2 mi East 6.9 mph - N/A   Scattered Clouds
10:50 AM 46.4 °F 42.9 °F 37.4 °F 71% 29.92 in 6.2 mi East 6.9 mph - N/A   Scattered Clouds
11:20 AM 48.2 °F - 39.2 °F 71% 29.89 in 6.2 mi ESE 8.1 mph - N/A   Scattered Clouds
11:50 AM 50.0 °F - 39.2 °F 66% 29.89 in 6.2 mi SE 10.4 mph - N/A   Scattered Clouds
12:20 PM 51.8 °F - 39.2 °F 62% 29.86 in 6.2 mi SE 9.2 mph - N/A   Scattered Clouds
12:50 PM 50.0 °F - 39.2 °F 66% 29.86 in 6.2 mi SSE 8.1 mph - N/A   Scattered Clouds
1:20 PM 50.0 °F - 39.2 °F 66% 29.86 in 6.2 mi SE 8.1 mph - N/A   Scattered Clouds
1:50 PM 50.0 °F - 37.4 °F 62% 29.83 in 6.2 mi ESE 8.1 mph - N/A   Scattered Clouds
2:00 PM 50 °F - 38 °F 53% 29.85 in 6 mi ESE 8.1 mph - -   Partly Cloudy
2:20 PM 51.8 °F - 39.2 °F 62% 29.83 in 6.2 mi East 8.1 mph - N/A   Scattered Clouds
2:50 PM 51.8 °F - 39.2 °F 62% 29.80 in 6.2 mi ESE 9.2 mph - N/A   Scattered Clouds
3:20 PM 51.8 °F - 39.2 °F 62% 29.80 in 6.2 mi East 10.4 mph - N/A   Scattered Clouds
3:50 PM 51.8 °F - 39.2 °F 62% 29.80 in 6.2 mi East 10.4 mph - N/A   Scattered Clouds
4:20 PM 51.8 °F - 39.2 °F 62% 29.80 in 6.2 mi ESE 10.4 mph - N/A   Scattered Clouds
4:50 PM 51.8 °F - 39.2 °F 62% 29.77 in 6.2 mi ESE 11.5 mph - N/A   Scattered Clouds
5:20 PM 51.8 °F - 39.2 °F 62% 29.77 in 6.2 mi ESE 10.4 mph - N/A   Scattered Clouds
5:50 PM 51.8 °F - 41.0 °F 67% 29.77 in 6.2 mi SSE 15.0 mph - N/A   Scattered Clouds
6:20 PM 51.8 °F - 41.0 °F 67% 29.74 in 6.2 mi ESE 12.7 mph - N/A   Scattered Clouds
6:50 PM 51.8 °F - 41.0 °F 67% 29.74 in 6.2 mi ESE 13.8 mph - N/A   Mostly Cloudy
7:20 PM 51.8 °F - 39.2 °F 62% 29.71 in 6.2 mi ESE 15.0 mph - N/A   Mostly Cloudy
7:50 PM 51.8 °F - 39.2 °F 62% 29.71 in 6.2 mi East 13.8 mph - N/A Rain Light Rain Showers
8:00 PM 52 °F - 40 °F 53% 29.73 in 6 mi East 13.8 mph - - Rain Light Rain Showers
8:20 PM 55.4 °F - 42.8 °F 63% 29.71 in 6.2 mi ESE 16.1 mph - N/A   Mostly Cloudy
8:50 PM 55.4 °F - 42.8 °F 63% 29.68 in 6.2 mi SE 15.0 mph - N/A Rain Light Rain Showers
9:20 PM 55.4 °F - 42.8 °F 63% 29.68 in 6.2 mi South 23.0 mph 34.5 mph N/A Rain Light Rain Showers
9:50 PM 53.6 °F - 42.8 °F 67% 29.68 in 6.2 mi South 13.8 mph - N/A Rain Light Rain Showers
10:20 PM 51.8 °F - 46.4 °F 82% 29.74 in 3.7 mi SW 23.0 mph 35.7 mph N/A Rain Light Rain Showers
10:50 PM 51.8 °F - 46.4 °F 82% 29.74 in 6.2 mi SW 15.0 mph - N/A Rain Light Rain Showers
11:20 PM 51.8 °F - 46.4 °F 82% 29.74 in 6.2 mi SSW 16.1 mph - N/A Rain Light Rain Showers
11:50 PM 51.8 °F - 46.4 °F 82% 29.71 in 6.2 mi SSW 18.4 mph - N/A Rain Light Rain Showers